www.pogodaiklimat.ru

Погода и климат >> Архив погоды >> Австралия >> Alice Springs Airport


ПОГОДА в Alice Springs Airport

  • Прогноз погоды в Alice Springs Airport
  • Монитор погоды в Alice Springs Airport
  • Климат города

АРХИВ ПОГОДЫ в Alice Springs Airport

Время (UTC), дата Ветер
(напр.,м/с)
 
Видим.   Явления Облачность Т
(С)
Тd
(С)
f
(%)
Тe
(С)
Тes
(С)
Комфортность P
(гПа)
Po
(гПа)
Тmin
(С)
Tmax
(С)
R
(мм)
R24
(мм)
S
(см)
02 13.11 С 7 н/о н/о +28.3 +17.2 51 +32 +32 душно 1008.2 947.7
03 13.11 С 7 н/о н/о +28.9 +16.5 47 +32 +32 душно 1007.7 947.2
05 13.11 С 5 н/о н/о +30.0 +14.9 40 +32 +32 жарко 1005.7 945.3
06 13.11 СЗ 3 н/о н/о +30.5 +14.2 37 +32 +32 жарко 1004.9 944.6
08 13.11 З 11 н/о н/о +18.4 +17.9 97 +18 +18 1006.9 946.5
09 13.11 СВ 6 н/о н/о +18.6 +17.9 96 +19 +19 1008.6 948.1
11 13.11 С 6 н/о н/о +19.5 +18.3 93 +22 +22 комфорт 1007.9 947.4
12 13.11 С 3 н/о н/о +19.6 +17.7 89 +22 +22 комфорт 1008.2 947.7
14 13.11 С 6 н/о н/о +20.9 +15.7 72 +24 +24 комфорт 1007.1 946.7
15 13.11 З 3 н/о н/о +21.3 +15.2 68 +24 +24 комфорт 1007.2 946.8
17 13.11 Ю 2 н/о н/о +19.7 +16.3 81 +23 +23 комфорт 1006.7 946.3
18 13.11 СЗ 2 н/о н/о +19.9 +16.5 81 +23 +23 комфорт 1007.9 947.4
20 13.11 З 2 н/о н/о +18.4 +16.9 91 +20 +20 1008.9 948.4
21 13.11 З 5 н/о н/о +19.1 +17.4 90 +21 +21 комфорт 1010.7 950.0
23 13.11 СВ 5 н/о н/о +21.0 +17.8 82 +25 +25 комфорт 1009.1 948.5
00 14.11 штиль 0 н/о н/о +24.5 +18.2 68 +29 +29 душно 1009.3 948.7
02 14.11 СЗ 4 н/о н/о +29.3 +14.7 41 +32 +32 душно 1008.1 947.6
03 14.11 СЗ 6 н/о н/о +32.2 +15.2 36 +34 +34 душно 1007.2 946.8
05 14.11 ЮЗ 3 н/о н/о +33.6 +13.6 30 +35 +35 душно 1005.9 945.5
06 14.11 З 4 н/о н/о +32.0 +12.3 30 +32 +32 жарко 1005.8 945.4
08 14.11 С 3 н/о н/о +30.2 +14.7 39 +32 +32 жарко 1005.8 945.4
09 14.11 ЮЗ 7 н/о н/о +28.0 +12.4 38 +29 +29 жарко 1006.9 946.5
11 14.11 З 3 н/о н/о +22.0 +17.2 74 +26 +26 душно 1007.4 946.9
12 14.11 СЗ 2 н/о н/о +22.3 +17.2 73 +27 +27 душно 1008.0 947.5
14 14.11 С 6 н/о н/о +22.7 +16.5 68 +27 +27 душно 1009.2 948.6
15 14.11 С 4 н/о н/о +22.7 +15.5 64 +27 +27 душно 1009.6 949.0
17 14.11 З 3 н/о н/о +21.8 +16.5 72 +26 +26 душно 1008.2 947.7
18 14.11 З 3 н/о н/о +20.8 +17.0 79 +25 +25 комфорт 1008.8 948.3
20 14.11 штиль 0 н/о н/о +19.2 +17.3 89 +21 +21 комфорт 1010.4 949.8
21 14.11 штиль 0 н/о н/о +18.7 +17.7 94 +20 +20 1011.5 950.8
23 14.11 ЮВ 3 н/о н/о +24.8 +16.8 61 +28 +28 жарко 1012.4 951.6
00 15.11 Ю 3 н/о н/о +27.0 +18.0 58 +32 +32 очень
душно
1012.5 951.7
02 15.11 Ю 5 н/о н/о +29.1 +16.3 46 +32 +32 душно 1011.8 951.1
03 15.11 В 4 н/о н/о +30.5 +16.1 42 +34 +34 очень
душно
1011.1 950.4
05 15.11 В 4 н/о н/о +32.3 +16.2 38 +35 +35 очень
душно
1009.3 948.7
06 15.11 ЮВ 3 н/о н/о +32.7 +14.8 34 +34 +34 очень
жарко
1008.4 947.9
08 15.11 ЮВ 4 н/о н/о +31.4 +14.1 35 +33 +33 жарко 1007.8 947.3
09 15.11 Ю 3 н/о н/о +30.3 +16.0 42 +33 +33 душно 1008.8 948.3
11 15.11 Ю 7 н/о н/о +20.8 +19.1 90 +25 +25 комфорт 1011.2 950.5
12 15.11 Ю 9 н/о н/о +20.7 +18.6 88 +24 +24 комфорт 1013.9 953.1
14 15.11 В 6 н/о н/о +18.5 +17.9 96 +19 +19 1015.4 954.5
15 15.11 ЮЗ 3 н/о н/о +19.0 +18.3 96 +21 +21 комфорт 1015.5 954.6
17 15.11 С 3 н/о н/о +18.7 +17.9 95 +20 +20 1013.5 952.7
18 15.11 С 4 н/о н/о +18.4 +17.4 94 +19 +19 1011.3 950.6
20 15.11 ЮЗ 4 н/о н/о +18.6 +17.6 94 +20 +20 1013.7 952.9
21 15.11 С 1 н/о н/о +18.9 +18.1 95 +22 +22 комфорт 1013.8 953.0
23 15.11 В 3 н/о н/о +20.2 +17.6 85 +24 +24 комфорт 1014.2 953.3
00 16.11 В 3 н/о н/о +22.6 +16.4 68 +27 +27 душно 1014.3 953.4
02 16.11 ЮВ 5 н/о н/о +24.7 +15.6 57 +28 +28 душно 1013.0 952.2
03 16.11 В 5 н/о н/о +25.5 +15.5 54 +29 +29 душно 1012.4 951.6
05 16.11 ЮВ 3 н/о н/о +27.7 +16.0 49 +31 +31 душно 1010.8 950.1
06 16.11 В 4 н/о н/о +28.1 +15.1 45 +31 +31 душно 1010.0 949.4
08 16.11 В 4 н/о н/о +28.5 +15.1 44 +31 +31 душно 1009.5 948.9
09 16.11 ЮВ 4 н/о н/о +27.3 +15.0 47 +30 +30 душно 1010.0 949.4
11 16.11 ЮВ 4 н/о н/о +25.0 +15.3 55 +28 +28 жарко 1011.2 950.5
12 16.11 В 3 н/о н/о +23.1 +15.9 64 +28 +28 душно 1011.6 950.9
14 16.11 В 4 н/о н/о +21.8 +16.5 72 +26 +26 душно 1011.9 951.2
15 16.11 В 4 н/о н/о +21.0 +15.5 71 +25 +25 комфорт 1011.7 951.0
17 16.11 В 3 н/о н/о +19.7 +14.5 72 +22 +22 комфорт 1011.9 951.2
18 16.11 СВ 3 н/о н/о +18.9 +15.4 80 +20 +20 1011.6 950.9
20 16.11 В 2 н/о н/о +18.3 +14.6 79 +19 +19 1011.6 950.9
21 16.11 штиль 0 н/о н/о +19.6 +16.1 80 +22 +22 комфорт 1012.4 951.6
23 16.11 СВ 5 н/о н/о +25.1 +11.6 43 +27 +27 жарко 1013.1 952.3
00 17.11 СВ 4 н/о н/о +26.4 +10.9 38 +27 +27 жарко 1012.9 952.1
02 17.11 В 4 н/о н/о +29.9 +11.4 32 +30 +30 жарко 1011.8 951.1
03 17.11 ЮВ 4 н/о н/о +30.9 +11.3 30 +31 +31 жарко 1010.9 950.2
05 17.11 Ю 4 н/о н/о +33.1 +12.7 29 +34 +34 очень
жарко
1008.9 948.4
06 17.11 ЮВ 3 н/о н/о +32.9 +10.9 26 +33 +33 жарко 1008.3 947.8
08 17.11 ЮВ 4 н/о н/о +32.9 +10.3 25 +32 +32 жарко 1007.7 947.2
09 17.11 ЮВ 5 н/о н/о +31.4 +10.7 28 +31 +31 жарко 1008.4 947.9
11 17.11 В 3 н/о н/о +27.0 +13.0 42 +29 +29 жарко 1010.0 949.4
12 17.11 В 3 н/о н/о +24.9 +14.4 52 +27 +27 жарко 1010.7 950.0
14 17.11 ЮВ 3 н/о н/о +23.7 +15.7 61 +27 +27 жарко 1011.3 950.6
15 17.11 В 3 н/о н/о +23.3 +14.6 58 +27 +27 душно 1010.9 950.2
17 17.11 В 3 н/о н/о +21.7 +14.4 63 +25 +25 комфорт 1010.5 949.9
18 17.11 В 1 н/о н/о +20.0 +16.0 78 +24 +24 комфорт 1010.2 949.6
20 17.11 СВ 2 н/о н/о +19.0 +14.3 74 +21 +21 комфорт 1010.8 950.1
21 17.11 В 2 н/о н/о +21.6 +15.2 67 +25 +25 комфорт 1011.3 950.6
23 17.11 СВ 4 н/о н/о +27.8 +10.1 33 +28 +28 жарко 1011.7 951.0
00 18.11 СВ 4 н/о н/о +30.0 +9.0 27 +29 +29 жарко 1011.5 950.8
02 18.11 СЗ 4 н/о н/о +33.3 +8.7 22 +32 +32 жарко 1010.5 949.9
03 18.11 Ю 3 н/о н/о +33.9 +8.5 21 +32 +32 жарко 1009.6 949.0
05 18.11 ЮЗ 4 н/о н/о +36.2 +7.3 17 +34 +34 очень
жарко
1007.4 946.9
06 18.11 ЮЗ 3 н/о н/о +35.7 +6.9 17 +33 +33 жарко 1006.7 946.3
08 18.11 В 4 н/о н/о +35.7 +6.9 17 +33 +33 жарко 1006.4 946.0
09 18.11 В 4 н/о н/о +34.3 +7.4 19 +32 +32 жарко 1006.7 946.3
11 18.11 В 4 н/о н/о +28.5 +9.2 30 +28 +28 жарко 1007.8 947.3
12 18.11 В 4 н/о н/о +26.7 +11.6 39 +28 +28 жарко 1008.4 947.9
14 18.11 СВ 4 н/о н/о +25.0 +10.1 39 +26 +26 жарко 1008.0 947.5
15 18.11 СВ 3 н/о н/о +24.6 +9.3 38 +25 +25 комфорт 1007.4 946.9
17 18.11 В 2 н/о н/о +23.6 +8.8 39 +24 +24 комфорт 1007.0 946.6
18 18.11 В 3 н/о н/о +22.3 +11.4 50 +24 +24 комфорт 1007.2 946.8
20 18.11 СВ 3 н/о н/о +21.4 +9.3 46 +23 +23 комфорт 1007.9 947.4
21 18.11 В 4 н/о н/о +24.0 +8.4 37 +25 +25 комфорт 1008.4 947.9
23 18.11 СВ 4 н/о н/о +29.4 +4.1 20 +28 +28 жарко 1009.5 948.9
00 19.11 С 6 н/о н/о +32.2 +0.3 13 +29 +29 жарко 1009.1 948.5
02 19.11 ЮЗ 5 н/о н/о +32.4 +5.1 18 +30 +30 жарко 1009.8 949.2
03 19.11 ЮВ 5 н/о н/о +33.7 +4.4 16 +31 +31 жарко 1008.9 948.4
05 19.11 СЗ 3 н/о н/о +35.0 +6.3 17 +33 +33 жарко 1006.8 946.4
06 19.11 З 4 н/о н/о +34.9 +6.2 17 +33 +33 жарко 1006.0 945.6
08 19.11 СЗ 3 н/о н/о +33.8 +7.0 19 +32 +32 жарко 1005.9 945.5
09 19.11 ЮВ 4 н/о н/о +32.3 +7.9 22 +31 +31 жарко 1006.6 946.2
11 19.11 В 3 н/о н/о +29.2 +8.3 27 +29 +29 жарко 1008.0 947.5
12 19.11 СВ 3 н/о н/о +27.7 +10.4 34 +28 +28 жарко 1008.3 947.8
14 19.11 В 1 н/о н/о +26.1 +10.3 37 +27 +27 жарко 1007.8 947.3
15 19.11 штиль 0 н/о н/о +23.8 +13.6 53 +26 +26 жарко 1007.7 947.2
17 19.11 штиль 0 н/о н/о +23.0 +15.8 64 +27 +27 душно 1007.4 946.9
18 19.11 штиль 0 н/о н/о +22.9 +16.7 68 +28 +28 душно 1007.8 947.3
20 19.11 Ю 5 н/о н/о +24.2 +2.4 24 +23 +23 комфорт 1009.4 948.8
21 19.11 В 2 н/о н/о +22.2 +4.7 32 +22 +22 комфорт 1010.4 949.8
23 19.11 СВ 4 н/о н/о +27.5 +1.1 18 +25 +25 комфорт 1010.4 949.8
00 20.11 СВ 4 н/о н/о +29.9 +1.4 16 +27 +27 жарко 1009.9 949.3

 

Местоположение метеостанции Alice Springs Airport (Северная территория, Австралия): широта -23.80 долгота 133.88 высота над уровнем моря 547 м.

В архиве по умолчанию представлена погода в Alice Springs Airport за последнюю неделю. Архивные данные за месяц целиком и за предыдущие месяцы, начиная с января 2011 года, Вы можете получить, выбрав интересующий диапазон дат из раскрывающегося списка и нажав кнопку "Ввод!".

Внимание! Время в таблицах - всемирное. Для получения местного времени необходимо прибавить поправку, которая в Alice Springs Airport равна 9.5 ч.

Смотрите также архив погоды в соседних городах и на ближайших метеорологических станциях:

Погода в Territory Grape Farm (Северная территория, Австралия) (152 км)
Погода в Jervois (Северная территория, Австралия) (250 км)
Погода в Pukatja (Южная Австралия, Австралия) (324 км)
Погода в Yulara Aero (Северная территория, Австралия) (332 км)
Погода в Oodnadatta Airport (Южная Австралия, Австралия) (446 км)
Погода в Wulungurru (Северная территория, Австралия) (464 км)
Погода в Tennant Creek Airport (Северная территория, Австралия) (465 км)
Погода в Rabbit Flat (Северная территория, Австралия) (566 км)
Погода в Giles Meteorologica (Западная Австралия, Австралия) (581 км)
Погода в Coober Pedy Airport (Южная Австралия, Австралия) (588 км)

Пояснения к столбцам:

Ветер - указаны скорость ветра в м/с - средняя за 10 мин, порывы в срок и между сроками (в фигурных скобках) и направление, откуда дует ветер: С - северный, СВ - северо-восточный, В - восточный, ЮВ - юго-восточный, Ю - южный, ЮЗ - юго-западный, З - западный, СЗ - северо-западный.
Видимость - горизонтальная дальность видимости в метрах или километрах. При видимости от 1 до 10 км при отсутствии осадков обычно наблюдается дымка, при ухудшении видимости до 1 км и менее - туман. В сухую погоду видимость может ухудшаться дымом, пылью или мглою.
Явления - указаны атмосферные явления, наблюдавшиеся в срок или в последний час перед сроком; фигурными скобками обозначены явления, наблюдавшиеся между сроками (за 1-3 часа до срока); квадратными скобками обозначены град или гололедные отложения с указанием их диаметра в мм.
Облачность - указаны через наклонную черту общая и нижняя облачность в баллах и высота нижней границы облаков в метрах; квадратными скобками обозначены формы облаков: Ci - перистые, Cs - перисто-слоистые, Cc - перисто-кучевые, Ac - высококучевые, As - высокослоистые, Sc - слоисто-кучевые, Ns - слоисто-дождевые, Cu - кучевые, Cb - кучево-дождевые. Подробнее классификацию облаков см. в Атласе облаков (PDF).
T - Температура воздуха - температура, измеренная на высоте 2 м над землей.
Td - Температура точки росы - температура, при понижении до которой содержащийся в воздухе водяной пар достигнет насыщения.
f - Относительная влажность воздуха - влажноcть воздуха, измеренная на высоте 2 м над землей.
Te - Эффективная температура - температура, которую ощущает одетый по сезону человек в тени. Характеристика душности погоды. При расчете учитывается влияние влажности воздуха и скорости ветра на теплоощущения человека.
Tes - Эффективная температура на солнце - температура, которую ощущает человек, с поправкой на солнечный нагрев. Характеристика знойности погоды. Зависит от высоты солнца над горизонтом, облачности и скорости ветра. Ночью, в пасмурную погоду, а также при ветре 12 м/с и более поправка равна нулю.
P - Атмосферное давление - приведенное к уровню моря атмосферное давление.
Po - Атмосферное давление - измеренное на уровне метеостанции атмосферное давление.
Tmin - Минимальная температура - минимум температуры воздуха на высоте 2 м над землей.
Tmax - Максимальная температура - максимум температуры воздуха на высоте 2 м над землей.
R - Количество осадков - Количество выпавших осадков за период времени, мм. При наведении курсора мыши на число - период времени, за который выпало указанное количество осадков.
R24 - Количество осадков - Количество выпавших осадков за 24 часа, мм.
S - Снежный покров - Высота снежного покрова, см. При наведении курсора мыши на число - состояние снежного покрова и степень покрытия местности в баллах.